Location: Unspecified
(0.0000°N, 0.0000°E)
Time: 12:01:53
(UTC+00:00)

S-56A Canister/Altair - Pass Details

Date: 01 June 2024
Orbit: 637 x 2489 km, 38.9° (Epoch: 17 June)

Event Time Altitude Azimuth Distance (km) Brightness Sun altitude
Rises 20:35:21 0° 191° (S) 4,264 - -35.9°
Reaches altitude 10° 20:40:07 10° 166° (SSE) 3,693 - -37.0°
Maximum altitude 20:44:40 14° 138° (SE) 3,736 - -38.0°
Drops below altitude 10° 20:49:56 10° 110° (ESE) 4,413 - -39.1°
Sets 20:56:45 0° 89° (E) 5,792 - -40.6°
